Temperature
8 8 8 7 7 7 7 7 7 6 6 7 7 7 7 7 7 7 7 7 6 6 6 6 6 6 6 6 5 5 5 5 5 5 5 5 5 5
8 7 7 7 7 7 7 7 7 6 6 6 6 7 7 7 6 6 6 6 6 6 6 6 6 5 5 5 5 5 5 5 5 5 5 4 4 4
7 7 7 7 7 7 7 6 6 6 6 6 6 6 6 6 6 6 6 6 6 5 5 5 5 5 5 5 5 5 4 4 4 4 4 4 4 4
7 7 7 7 7 6 6 6 6 6 6 6 6 6 6 5 5 5 5 5 5 5 5 5 5 5 4 4 4 4 4 4 4 4 4 3 3 3
6 6 7 6 6 6 6 6 6 6 6 5 5 5 5 5 5 5 5 5 5 5 4 4 4 4 4 4 4 4 4 3 3 3 3 3 3 3
6 6 6 6 6 6 6 6 5 5 5 5 5 5 5 5 4 4 4 4 4 4 4 4 4 4 4 4 3 3 3 3 3 3 3 2 2 2
6 6 5 6 5 5 5 5 5 5 5 5 5 4 4 4 4 4 4 4 4 4 3 4 3 3 3 3 3 3 3 3 2 2 2 2 2 2
5 5 5 5 5 5 5 5 5 4 4 4 4 4 4 4 4 3 3 3 3 3 3 3 3 3 3 3 3 3 2 2 2 2 2 2 2 1
4 4 4 4 4 4 4 4 4 4 4 4 3 3 3 3 3 3 3 2 2 2 2 2 2 2 2 2 2 2 2 2 2 1 1 1 1 1
4 4 4 4 4 4 4 4 3 3 3 3 3 3 3 2 2 2 2 2 2 2 1 1 2 2 2 2 2 1 1 1 1 1 1 1 0 0
3 3 3 3 3 3 3 3 3 3 3 3 2 2 2 2 2 1 1 1 1 1 1 1 1 1 1 1 1 1 1 1 0 0 0 -0 -0 -0
3 3 3 3 3 3 2 2 2 2 2 2 2 2 1 1 1 1 1 0 0 0 0 0 0 -0 -0 0 0 -0 -0 -0 -0 -0 -1 -1 -1 -1
2 2 2 2 2 2 2 2 2 2 1 1 1 1 1 1 1 0 0 -0 -0 -0 -0 -1 -1 -1 -1 -1 -1 -1 -1 -1 -1 -1 -1 -1 -1 -2
1 1 1 1 1 1 1 1 1 1 0 0 0 0 0 0 0 -0 -0 -0 -1 -1 -1 -1 -1 -1 -2 -2 -2 -2 -2 -2 -2 -2 -2 -2 -2 -2
0 0 0 0 0 0 0 0 0 0 -0 -0 -1 -1 -1 -1 -1 -1 -1 -1 -1 -1 -1 -2 -2 -2 -2 -2 -2 -2 -3 -2 -3 -3 -2 -2 -2 -2
-0 -0 -0 -0 -0 -1 -1 -1 -1 -1 -1 -1 -1 -1 -1 -1 -1 -1 -2 -2 -2 -2 -2 -2 -2 -3 -3 -3 -3 -3 -3 -4 -3 -3 -3 -3 -3 -3
-1 -1 -1 -1 -1 -1 -1 -1 -2 -2 -2 -2 -2 -2 -2 -2 -2 -2 -2 -2 -3 -3 -3 -3 -3 -3 -3 -4 -4 -4 -4 -4 -4 -4 -4 -4 -4 -4
-2 -2 -2 -2 -2 -2 -2 -2 -2 -2 -2 -2 -2 -2 -2 -3 -3 -3 -3 -3 -3 -3 -3 -4 -4 -4 -4 -4 -4 -4 -4 -4 -4 -5 -5 -5 -4 -4
-3 -3 -3 -3 -3 -3 -3 -3 -3 -3 -3 -3 -3 -3 -3 -3 -3 -3 -4 -4 -4 -4 -4 -4 -5 -5 -5 -5 -5 -5 -5 -5 -5 -5 -5 -5 -5 -5
-3 -3 -3 -3 -3 -3 -3 -3 -3 -3 -3 -3 -4 -4 -4 -4 -4 -4 -4 -4 -5 -5 -5 -5 -5 -5 -5 -6 -5 -5 -5 -5 -6 -6 -6 -6 -5 -5
-4 -4 -4 -4 -4 -4 -4 -4 -4 -4 -4 -4 -4 -4 -4 -4 -5 -5 -5 -5 -5 -5 -5 -5 -5 -6 -6 -6 -6 -6 -5 -6 -6 -6 -6 -6 -6 -6
-4 -4 -4 -4 -4 -4 -4 -4 -4 -4 -5 -5 -5 -5 -5 -5 -5 -5 -5 -5 -6 -6 -6 -6 -6 -6 -6 -6 -6 -6 -6 -6 -6 -6 -6 -7 -7 -7
-5 -5 -5 -5 -5 -5 -5 -5 -5 -5 -5 -5 -5 -5 -5 -5 -5 -5 -6 -6 -6 -6 -6 -6 -6 -6 -7 -7 -7 -7 -7 -7 -6 -6 -6 -6 -7 -7
Wind_Speed
7 7 6 5 5 5 4 5 4 4 4 4 3 3 3 3 3 4 4 4 5 6 7 7 7 7 8 8 8 8 9 9 9 10 10 11 11 12
6 7 7 5 5 5 5 5 5 5 4 3 3 2 3 3 4 4 5 5 7 7 7 8 8 8 9 9 9 9 9 10 10 10 11 11 12 13
7 7 7 6 5 5 5 5 5 5 6 4 3 3 4 4 3 4 5 5 5 7 8 9 9 10 9 9 9 10 10 10 10 11 11 12 12 13
8 8 8 6 7 5 5 6 6 6 5 6 4 3 4 4 4 4 4 5 6 7 8 9 10 10 10 10 10 10 10 11 11 11 12 13 13 14
8 8 8 8 8 6 6 6 5 4 5 5 4 3 3 3 4 4 4 5 6 6 8 9 9 10 10 10 10 10 11 11 12 12 12 13 14 15
7 8 8 8 8 7 6 7 5 5 5 5 4 3 3 3 4 4 4 4 4 5 6 8 8 9 10 10 10 10 11 11 12 12 12 13 14 15
6 6 7 7 7 6 6 6 6 5 5 5 5 4 4 3 4 4 4 5 5 4 5 6 6 7 7 9 9 10 11 11 12 12 13 13 13 13
6 6 5 6 6 7 6 7 7 7 6 6 6 6 7 5 4 4 4 4 4 3 4 5 5 6 6 7 8 9 11 12 12 12 12 12 12 13
6 5 4 5 6 6 6 6 6 6 7 7 7 8 7 6 5 5 5 5 6 3 3 6 5 6 6 7 9 10 10 10 10 10 11 11 12 13
6 6 6 5 5 5 5 5 5 5 6 6 6 6 5 5 5 5 5 5 4 3 3 4 5 5 6 7 7 8 7 7 8 9 10 11 12 13
5 5 5 5 6 6 5 5 4 3 3 5 5 4 4 4 4 3 3 4 5 4 3 3 4 4 5 5 5 5 6 7 8 9 10 11 11 12
4 4 5 5 6 6 6 5 5 4 3 3 3 4 4 5 5 5 5 5 4 4 3 2 3 2 3 3 4 4 6 7 9 10 10 10 11 9
4 4 4 5 6 6 5 4 5 4 3 3 3 3 2 2 3 4 4 4 5 5 3 2 3 3 3 3 3 4 5 6 7 7 8 10 11 9
4 4 3 6 6 6 4 4 4 3 2 3 3 3 3 2 2 2 3 3 4 5 4 3 3 4 4 5 4 4 4 6 6 6 7 9 10 11
2 3 4 5 5 4 5 5 4 3 3 3 3 3 3 2 2 2 2 2 3 3 3 4 4 4 4 5 5 5 5 5 5 5 6 7 7 7
2 3 4 4 3 3 4 3 2 3 3 4 3 2 2 2 2 2 2 2 2 3 3 4 4 4 5 6 6 6 5 5 5 6 7 7 8 8
3 2 2 2 2 2 2 2 2 2 3 3 2 2 2 2 2 2 2 2 3 4 3 3 4 4 5 5 6 6 6 6 6 6 6 7 7 8
3 3 3 3 3 3 3 2 2 2 2 2 3 3 3 3 3 2 3 3 4 4 4 3 3 3 3 4 7 7 6 6 6 6 6 7 9 8
2 3 3 3 3 2 2 3 3 2 2 3 3 3 3 3 3 3 3 3 4 4 4 3 3 3 5 6 4 6 6 6 6 6 6 7 9 9
1 2 2 2 2 2 2 2 2 2 2 3 3 3 3 3 4 4 4 4 4 4 4 4 4 5 5 6 5 5 8 7 6 7 7 7 9 11
1 1 2 2 2 2 2 2 3 3 3 3 3 3 4 4 4 5 4 5 5 5 5 5 5 5 4 3 5 5 5 8 8 7 7 7 8 8
1 1 2 2 2 2 2 2 3 3 3 3 3 4 4 4 5 5 5 5 5 5 5 4 3 3 4 5 7 7 6 6 8 11 12 11 7 6
1 1 2 2 2 2 2 3 3 3 3 3 3 4 4 4 4 4 5 5 5 5 4 4 4 4 5 5 6 6 7 7 6 6 7 9 13 16
Wind_Direction
209 209 212 211 210 215 216 219 226 243 247 234 227 224 235 236 239 248 251 251 253 258 261 264 266 266 267 270 273 277 280 282 284 284 281 279 279 281
205 207 209 210 208 208 211 218 226 241 250 243 242 245 241 245 242 248 254 258 253 253 257 260 263 264 264 264 267 270 274 276 279 283 283 281 282 282
202 207 210 207 207 208 210 216 221 227 242 253 248 245 245 248 255 252 254 257 254 251 256 259 261 263 263 262 265 267 269 272 276 280 283 282 283 283
204 205 209 206 210 211 212 218 222 223 232 242 242 240 248 250 255 257 261 258 259 260 260 263 262 262 262 265 266 268 270 273 275 278 279 280 282 281
207 207 208 206 211 211 212 218 222 221 227 235 242 240 245 246 252 258 260 263 264 263 265 263 260 260 262 264 265 269 272 274 276 277 279 281 283 283
211 211 210 210 213 211 213 216 215 215 219 226 234 235 238 240 242 248 259 261 266 265 264 264 263 259 258 259 261 267 271 274 276 277 280 281 282 282
207 212 214 212 213 212 209 210 207 212 217 223 229 233 233 231 239 243 253 265 267 258 272 267 265 264 258 254 256 266 272 274 276 279 281 283 283 283
205 208 209 207 209 211 212 212 209 211 217 227 234 235 238 240 244 243 251 262 263 249 269 272 267 267 266 263 269 273 273 275 278 281 282 283 284 285
203 203 204 206 205 209 206 206 215 223 228 230 235 240 242 237 235 241 244 253 262 272 268 268 271 271 273 269 273 272 272 276 279 282 283 284 286 286
205 204 203 205 205 202 202 208 219 227 229 231 237 245 248 239 233 243 249 260 271 257 240 261 275 277 284 276 268 264 268 275 281 285 287 288 289 289
207 206 204 205 194 189 195 204 217 232 227 222 236 241 235 232 232 233 238 250 264 256 235 253 271 285 283 273 265 260 269 278 284 289 290 289 291 293
202 203 206 206 191 189 198 204 216 224 214 213 218 224 226 222 221 229 233 240 255 253 222 235 264 288 282 275 281 282 277 279 284 286 287 289 293 294
201 203 203 193 190 192 201 210 209 213 216 219 226 228 228 224 225 235 242 238 243 248 236 233 251 258 259 273 282 281 280 285 287 286 286 288 290 288
205 204 196 183 187 191 199 192 188 200 209 214 223 230 231 233 241 245 249 254 259 257 251 240 244 250 258 268 274 280 285 288 287 289 293 291 287 284
202 186 175 172 181 190 185 184 196 210 209 214 222 230 236 241 241 250 251 255 272 274 258 247 245 248 251 257 267 275 286 287 280 284 289 288 287 288
162 155 151 154 169 175 179 193 215 216 216 223 226 229 228 229 233 238 244 249 262 270 274 266 252 245 253 261 263 270 273 274 281 285 287 286 285 282
160 160 165 168 173 180 189 194 202 212 219 218 217 222 227 233 246 254 255 254 253 264 273 279 272 268 264 260 261 263 271 277 281 285 286 285 283 281
168 177 179 184 192 198 203 209 213 220 222 221 221 223 226 228 237 246 251 246 251 257 260 266 276 281 276 262 241 258 268 276 283 282 280 282 285 284
172 181 189 193 201 210 217 223 231 226 221 221 226 228 228 231 236 240 242 246 251 256 261 262 260 258 267 277 259 235 262 279 283 281 279 278 282 286
171 188 197 199 203 213 223 233 239 234 226 228 231 233 230 233 238 241 241 244 249 256 259 258 253 251 255 271 276 274 261 264 274 280 285 285 283 287
186 201 209 210 217 223 230 236 239 240 239 235 238 240 237 236 240 241 243 244 249 252 253 258 263 269 273 272 270 272 273 263 263 270 281 287 290 292
221 225 228 226 227 229 230 231 237 242 244 244 242 243 243 240 240 240 241 243 247 252 260 267 270 264 257 257 268 279 287 293 283 272 265 259 271 279
246 243 247 245 241 239 237 232 234 242 244 247 247 245 245 246 245 243 244 245 248 251 258 266 269 267 265 265 271 278 283 292 295 294 283 275 271 274
Height
1531 1533 1535 1536 1538 1540 1541 1543 1544 1544 1544 1544 1544 1544 1544 1544 1544 1544 1544 1543 1543 1543 1543 1542 1542 1541 1541 1540 1539 1539 1538 1537 1536 1535 1534 1533 1532 1530
1526 1529 1530 1532 1534 1535 1537 1539 1540 1541 1540 1540 1540 1541 1541 1541 1541 1540 1540 1540 1539 1539 1539 1538 1538 1537 1536 1536 1535 1534 1533 1532 1531 1530 1529 1528 1527 1526
1522 1524 1526 1528 1529 1531 1532 1534 1535 1536 1536 1536 1537 1537 1537 1537 1537 1537 1536 1536 1535 1535 1535 1534 1534 1533 1532 1531 1530 1529 1529 1528 1526 1525 1524 1523 1521 1520
1517 1519 1521 1523 1525 1526 1527 1529 1530 1531 1532 1532 1532 1532 1533 1533 1533 1533 1532 1532 1531 1531 1530 1530 1529 1528 1527 1527 1526 1525 1524 1523 1521 1520 1519 1518 1516 1515
1512 1514 1516 1518 1519 1521 1522 1524 1525 1526 1527 1527 1527 1528 1528 1528 1528 1528 1528 1527 1527 1526 1526 1525 1524 1524 1523 1522 1521 1520 1519 1517 1516 1515 1513 1512 1511 1510
1508 1509 1511 1513 1514 1516 1517 1519 1520 1521 1522 1523 1523 1523 1523 1523 1524 1523 1523 1523 1522 1522 1521 1520 1519 1519 1518 1517 1516 1515 1514 1512 1511 1509 1508 1506 1505 1504
1503 1505 1506 1508 1510 1511 1512 1514 1515 1516 1517 1518 1518 1518 1518 1518 1519 1518 1518 1518 1517 1517 1516 1515 1515 1513 1513 1512 1511 1510 1508 1507 1505 1504 1502 1501 1500 1498
1498 1500 1502 1503 1505 1506 1508 1509 1511 1511 1512 1513 1513 1513 1513 1514 1514 1514 1513 1513 1512 1512 1511 1510 1510 1508 1508 1507 1505 1504 1503 1502 1500 1499 1497 1495 1494 1492
1493 1495 1497 1498 1500 1501 1503 1504 1505 1506 1507 1508 1508 1508 1508 1509 1509 1509 1508 1508 1507 1507 1506 1504 1504 1503 1502 1501 1500 1499 1498 1496 1495 1493 1491 1490 1488 1486
1489 1491 1492 1494 1495 1497 1498 1498 1500 1501 1502 1502 1503 1503 1503 1504 1504 1504 1504 1503 1502 1502 1501 1499 1499 1498 1497 1496 1495 1493 1492 1491 1489 1488 1486 1484 1482 1481
1485 1487 1488 1489 1491 1492 1493 1494 1494 1495 1497 1497 1497 1497 1498 1498 1499 1499 1498 1498 1497 1496 1496 1495 1493 1492 1491 1490 1489 1488 1487 1486 1484 1482 1481 1479 1477 1475
1480 1482 1483 1485 1486 1487 1488 1489 1490 1491 1492 1492 1492 1492 1492 1492 1493 1493 1493 1493 1492 1491 1491 1491 1489 1488 1485 1484 1484 1483 1481 1480 1478 1477 1475 1473 1471 1469
1475 1477 1478 1480 1482 1483 1484 1485 1485 1486 1487 1487 1487 1487 1487 1487 1487 1488 1488 1488 1488 1487 1486 1486 1484 1483 1482 1479 1478 1477 1476 1475 1473 1471 1469 1468 1466 1464
1471 1473 1474 1476 1477 1479 1480 1480 1481 1482 1482 1482 1483 1482 1483 1482 1482 1483 1483 1483 1483 1482 1481 1481 1479 1479 1477 1475 1473 1472 1471 1469 1468 1466 1464 1462 1461 1459
1467 1469 1470 1472 1473 1474 1475 1476 1477 1478 1478 1478 1478 1478 1478 1478 1478 1478 1478 1478 1478 1477 1476 1476 1475 1474 1473 1471 1468 1466 1465 1463 1462 1460 1459 1457 1455 1452
1463 1465 1466 1468 1469 1470 1471 1472 1473 1473 1474 1474 1474 1474 1474 1474 1474 1474 1473 1473 1472 1472 1471 1471 1470 1469 1467 1466 1464 1462 1461 1459 1457 1456 1454 1451 1449 1447
1459 1461 1462 1464 1465 1466 1467 1467 1468 1469 1469 1469 1470 1470 1470 1470 1469 1469 1469 1468 1467 1467 1466 1465 1465 1464 1462 1461 1459 1457 1456 1454 1453 1451 1448 1446 1444 1442
1456 1457 1458 1460 1461 1462 1463 1463 1464 1465 1465 1465 1465 1465 1465 1465 1465 1465 1464 1464 1463 1462 1461 1460 1459 1458 1457 1455 1455 1453 1451 1450 1448 1446 1444 1440 1437 1436
1453 1453 1455 1456 1457 1458 1459 1459 1460 1460 1461 1461 1461 1461 1461 1461 1460 1460 1459 1459 1458 1457 1456 1456 1455 1454 1452 1450 1449 1449 1447 1444 1443 1440 1438 1436 1432 1430
1449 1451 1452 1453 1454 1454 1455 1455 1456 1456 1456 1456 1456 1456 1456 1456 1455 1455 1454 1454 1453 1452 1452 1451 1450 1449 1448 1446 1444 1443 1442 1440 1438 1435 1433 1430 1427 1425
1447 1448 1449 1449 1450 1451 1451 1451 1451 1452 1452 1452 1452 1451 1451 1451 1451 1450 1450 1449 1449 1448 1447 1446 1445 1445 1444 1442 1440 1437 1436 1435 1433 1431 1428 1425 1422 1418
1444 1444 1445 1445 1446 1447 1447 1447 1447 1447 1447 1447 1447 1447 1447 1447 1446 1446 1445 1444 1444 1443 1442 1441 1440 1440 1439 1437 1434 1432 1431 1429 1428 1426 1424 1421 1418 1413
1440 1440 1441 1441 1442 1442 1443 1443 1443 1443 1443 1443 1443 1443 1442 1442 1442 1441 1441 1440 1439 1438 1438 1436 1436 1435 1433 1432 1430 1428 1426 1424 1422 1420 1418 1416 1414 1411